Location: Eboldshausen
(51.7766°N, 10.0050°E)
Time: 06:21:28
(UTC+00:00)

Cosmos 1428 Rocket - Pass Details

Date: 15 November 2025
Orbit: 948 x 986 km, 82.9° (Epoch: 10 December)

Event Time Altitude Azimuth Distance (km) Brightness Sun altitude
Rises 17:44:40 0° 350° (N) 3,677 7.6 -20.7°
Reaches altitude 10° 17:47:12 10° 353° (N) 2,732 6.9 -21.1°
Maximum altitude 17:53:28 73° 78° (ENE) 1,025 4.4 -22.1°
Drops below altitude 10° 17:59:44 10° 163° (SSE) 2,734 6.7 -23.0°
Sets 18:02:16 0° 166° (SSE) 3,681 7.4 -23.4°
